Skip Page Navigation
NASA JPL Caltech
NASA Logo - Jet Propulsion Laboratory + View the NASA Portal
+ Center for Near-Earth Object Studies
JPL Home Earth Solar System Stars & Galaxies Technology
JPL Solar System Dynamics
BODIES ORBITS EPHEMERIDES TOOLS PHYSICAL DATA DISCOVERY FAQ SITE MAP
JPL Small-Body Database Browser
Search: [ help ]  
312098 (2007 TM130)
Classification: Main-belt Asteroid          SPK-ID: 2312098
Ephemeris | Orbit Diagram | Orbital Elements | Mission Design | Physical Parameters | Discovery Circumstances ]

[ show orbit diagram ]
Orbital Elements at Epoch 2459000.5 (2020-May-31.0) TDB
Reference: JPL 15 (heliocentric ecliptic J2000)
 Element Value Uncertainty (1-sigma)   Units 
e .09678012783602964 4.8947e-08  
a 2.343779576884616 1.4544e-08 au
q 2.116948289814247 1.1262e-07 au
i 5.795864434514069 4.8938e-06 deg
node 239.5457265918526 4.6999e-05 deg
peri 174.6300687540056 5.3227e-05 deg
M 165.9481390234976 2.5363e-05 deg
tp 2458396.351834600008
(2018-Oct-04.85183460)
9.0645e-05 TDB
period 1310.610295624953
3.59
1.2199e-05
3.34e-08
d
yr
n .2746811933354583 2.5568e-09 deg/d
Q 2.570610863954984 1.5952e-08 au
  Orbit Determination Parameters
   # obs. used (total)      297  
   data-arc span      7038 days (19.27 yr)  
   first obs. used      2001-01-19  
   last obs. used      2020-04-27  
   planetary ephem.      DE431  
   SB-pert. ephem.      SB431-N16  
   condition code      0  
   norm. resid. RMS      .56606  
   source      ORB  
   producer      Otto Matic  
   solution date      2020-May-21 20:26:00  

Additional Information
 Earth MOID = 1.1284 au 
 Jupiter MOID = 2.71948 au 
 T_jup = 3.549 
[ show covariance matrix ]

Ephemeris | Orbit Diagram | Orbital Elements | Mission Design | Physical Parameters | Discovery Circumstances ]

Physical Parameter Table
Parameter Symbol Value Units Sigma Reference Notes
absolute magnitude H 16.8   n/a MPO455300  

312098 (2007 TM130)          Discovered 2007-Oct-07 by Chante-Perdrix at Chante-Perdrix
Reference: 20120109/Numbers.arcLast Updated: 2012-01-11

Alternate Designations
 2007 TM130 = 2001 BV82 = 2005 CY23 
Ephemeris | Orbit Diagram | Orbital Elements | Mission Design | Physical Parameters | Discovery Circumstances ]
ABOUT SSD CREDITS/AWARDS PRIVACY/COPYRIGHT GLOSSARY LINKS
FirstGov 2020-Aug-07 18:45 UT
(server date/time)  
NASA Home Page
Site Manager:   Ryan S. Park
Webmaster  Alan B. Chamberlin